[[{"header":{"parameterUnit":"m.s-1","parameterCategory":1,"la1":30.2991,"la2":30.254,"lo1":-89.0895,"lo2":-89.0444,"dy":0.0017,"dx":0.0017,"nx":28,"ny":28,"refTime":"2024-08-05T03:00:00:Z","depth":0,"parameterNumber":2,"parameterNumberName":"U-component_of_WINDS"},"data":[0,0,0,0,0,0,0,0,0,0,0,0,0,0,0,0,0,0,0,0,0,0,0,0,0,0,0,0,0,0,0,0,0,0,0,0,0,0,0,0,0,0,0,0,0,0,0,0,0,0,0,0,0,0,0,0,0,0,2.0783,2.0784,0,2.0915,2.0916,2.0918,2.0888,2.0886,2.0883,2.0881,2.1028,2.1034,2.104,0,0,0,0,0,0,0,0,0,0,0,0,0,2.0516,2.0521,2.0782,2.0784,2.0786,2.0914,2.0916,2.0918,2.0888,2.0885,2.0882,2.0879,2.1026,2.1033,2.1041,0,0,0,0,0,0,0,0,0,0,0,0,0,2.0638,2.0522,2.0782,2.0786,2.0788,2.0914,2.0916,2.0919,2.0889,2.0885,2.0882,2.0878,2.1023,2.1032,2.1042,2.1176,0,0,2.107,2.1074,0,0,0,0,0,0,0,0,2.0631,2.0648,2.0784,2.0786,2.0788,2.0881,2.0876,2.1005,2.089,2.0851,2.0881,2.0876,2.0983,2.0995,2.1029,2.1182,2.1189,2.1071,2.1077,2.1081,2.1084,0,0,0,0,0,0,0,2.0623,2.0642,2.0835,2.0786,2.0789,2.0785,2.0798,2.09,2.0937,2.0854,2.0852,2.0868,2.0983,2.102,2.1032,2.1191,2.1071,2.1079,2.1085,2.1089,2.1463,2.1467,0,0,0,0,0,0,2.0611,2.0636,2.0831,2.0839,2.0698,2.0793,2.0808,2.0855,2.0936,2.0944,2.0871,2.0866,2.1005,2.1021,2.1037,2.12,2.1081,2.109,2.1095,2.1458,2.1464,2.1468,0,0,0,0,0,0,2.0605,2.0629,2.0826,2.0737,2.0761,2.0801,2.0855,2.086,2.0896,2.0948,2.0956,2.0901,2.1003,2.1024,2.1141,2.1204,2.1094,2.1102,2.1453,2.146,2.1466,2.1525,0,0,0,0,0,0,2.0598,2.0627,2.0676,2.0738,2.0766,2.0924,2.0859,2.0865,2.0911,2.0906,2.0978,2.0986,2.1002,2.1127,2.115,2.1215,2.111,2.1448,2.1456,2.1464,2.1518,2.1533,2.1546,0,0,0,0,0,2.0588,2.0689,2.0678,2.0702,2.0827,2.0927,2.0944,2.0956,2.0916,2.0967,2.1001,2.0984,2.1193,2.1139,2.1165,2.1234,2.1444,2.1454,2.1463,2.1512,2.153,2.1546,0,0,0,0,0,0,2.0638,2.0698,2.0686,2.0809,2.0863,2.0922,2.0987,2.0975,2.1045,2.1037,2.1053,2.107,2.1189,2.1223,2.1162,2.1368,2.1313,2.1329,2.1341,2.1359,2.1373,2.1363,2.1118,0,0,0,0,0,2.0662,2.0735,2.0785,2.0889,2.0916,2.0947,2.0991,2.0995,2.1053,2.1077,2.1119,2.1179,2.1259,2.1311,2.1387,2.1523,2.1539,2.1583,2.1597,2.1608,2.1622,2.1698,2.1718,2.15,2.15,2.15,0,0,2.0715,2.0757,2.0802,2.09,2.0942,2.102,2.0966,2.1052,2.1111,2.1092,2.1203,2.1237,2.1305,2.1432,2.149,2.1464,2.1686,2.1621,2.1629,2.1637,2.171,2.173,2.1749,2.1506,2.1505,2.1504,0,0,2.0851,2.0889,2.098,2.1022,2.1085,2.1105,2.1127,2.1188,2.1208,2.132,2.1307,2.138,2.1515,2.1565,2.1608,2.1762,2.175,2.1787,2.1861,2.1934,2.1951,2.1967,2.2023,2.2043,2.18,2.18,2.18,0,2.091,2.1023,2.1029,2.1115,2.116,2.1141,2.1236,2.1278,2.1365,2.1397,2.1366,2.1536,2.1581,2.1719,2.1757,2.1792,2.182,2.1779,2.1947,2.1963,2.1978,2.2032,2.2053,2.1804,2.1804,2.1803,2.1803,0,2.1093,2.1172,2.1239,2.1318,2.137,2.146,2.1483,2.1536,2.1536,2.156,2.1675,2.1728,2.1814,2.1848,2.185,2.1988,2.1969,2.1943,2.1888,2.2002,2.2053,2.2074,2.181,2.1808,2.1807,2.1806,0,0,2.1265,2.1345,2.137,2.1405,2.1473,2.1537,2.1627,2.1707,2.1753,2.1814,2.1892,2.2007,2.1982,2.2031,2.2039,2.2103,2.2223,2.2069,2.2071,2.2097,2.238,2.24,2.2424,2.2215,2.2219,2.2222,2.2375,0,2.1408,2.1562,2.157,2.1712,2.1787,2.177,2.185,2.1902,2.1927,2.1997,2.2026,2.2107,2.2068,2.2097,2.216,2.2195,2.2281,2.2184,2.2292,2.2295,2.2275,2.245,2.2472,2.2613,2.2395,2.2398,2.24,0,2.1595,2.1657,2.1805,2.1862,2.1894,2.1964,2.2039,2.2105,2.2165,2.2179,2.2232,2.2231,2.2327,2.2268,2.2402,2.2337,2.2381,2.2405,2.2411,2.2423,2.2355,2.2468,2.2658,2.268,2.2432,2.2429,2.2427,0,2.1707,2.1828,2.1932,2.1963,2.2032,2.2082,2.2114,2.217,2.2218,2.2285,2.2316,2.2395,2.2439,2.2501,2.2522,2.2477,2.2657,2.2599,2.2674,2.2673,2.2713,2.2711,2.2914,2.274,2.274,2.2739,2.2739,0,2.1866,2.1958,2.1983,2.2047,2.215,2.216,2.2263,2.2293,2.2342,2.2415,2.2407,2.2476,2.2499,2.2573,2.2591,2.27,2.272,2.2737,2.274,2.2738,2.2736,2.2768,2.2759,2.2745,2.2744,2.2743,2.2742,0,2.2009,2.2029,2.2141,2.2196,2.2212,2.2286,2.2335,2.2399,2.2422,2.2514,2.2536,2.2574,2.2661,2.2687,2.2793,2.2805,2.2933,2.2928,2.2912,2.2913,2.2986,2.2979,2.3219,2.3251,2.3055,2.3057,2.3058,0,2.2109,2.2179,2.224,2.2286,2.2319,2.2394,2.2441,2.2455,2.2506,2.2579,2.2635,2.2719,2.2787,2.2927,2.2967,2.3048,2.3046,2.3124,2.3058,2.3053,2.3048,2.3044,2.3052,2.3137,2.3139,2.3141,2.3142,0,2.2287,2.2293,2.2359,2.2431,2.2487,2.2544,2.26,2.2639,2.2661,2.2719,2.2805,2.2858,2.2964,2.3049,2.3131,2.3169,2.3161,2.3162,2.3184,2.3182,2.317,2.3179,2.2947,2.3157,2.3155,2.3154,2.3153,2.3153,2.2412,2.2473,2.2526,2.2601,2.2643,2.2695,2.2757,2.2787,2.2857,2.2942,2.2946,2.3041,2.3101,2.3209,2.325,2.3327,2.3305,2.3336,2.3344,2.3352,2.3358,2.3157,2.3342,2.3342,2.3341,2.3341,2.3341,0,2.259,2.2622,2.2691,2.2767,2.2827,2.2809,2.287,2.2922,2.3004,2.3058,2.3124,2.3224,2.3307,2.3352,2.3435,2.3487,2.3486,2.3509,2.3506,2.3515,2.3373,2.3346,2.3509,2.3509,2.3509,2.3509,2.3509,2.3509,2.2689,2.2792,2.2804,2.2928,2.2961,2.305,2.3086,2.3135,2.3178,2.3289,2.3355,2.3383,2.3435,2.3521,2.3597,2.3608,2.364,2.3666,2.3675,2.3542,2.3525,2.3509,2.3483,2.3672,2.3673,2.3811,2.3813,2.3814]},{"header":{"parameterUnit":"m.s-1","parameterCategory":1,"la1":30.2991,"la2":30.254,"lo1":-89.0895,"lo2":-89.0444,"dy":0.0017,"dx":0.0017,"nx":28,"ny":28,"refTime":"2024-08-05T03:00:00:Z","depth":0,"parameterNumber":3,"parameterNumberName":"V-component_of_WINDS"},"data":[0,0,0,0,0,0,0,0,0,0,0,0,0,0,0,0,0,0,0,0,0,0,0,0,0,0,0,0,0,0,0,0,0,0,0,0,0,0,0,0,0,0,0,0,0,0,0,0,0,0,0,0,0,0,0,0,0,0,2.2074,2.2076,0,2.2243,2.2245,2.2246,2.2236,2.2233,2.2231,2.2229,2.2396,2.2402,2.2409,0,0,0,0,0,0,0,0,0,0,0,0,0,2.1738,2.1744,2.2074,2.2076,2.2079,2.2242,2.2245,2.2247,2.2236,2.2233,2.223,2.2228,2.2394,2.2401,2.241,0,0,0,0,0,0,0,0,0,0,0,0,0,2.1893,2.1746,2.2074,2.2093,2.2096,2.2242,2.2245,2.2248,2.2237,2.2233,2.223,2.2226,2.2391,2.2401,2.2411,2.2546,0,0,2.2442,2.2446,0,0,0,0,0,0,0,0,2.1884,2.1905,2.2088,2.2092,2.2096,2.2215,2.2187,2.2348,2.2238,2.2183,2.2229,2.2224,2.2338,2.2352,2.2392,2.2554,2.2561,2.2442,2.2449,2.2453,2.2456,0,0,0,0,0,0,0,2.1873,2.1898,2.2141,2.2091,2.2096,2.2091,2.2109,2.2218,2.2279,2.2188,2.2188,2.2208,2.2339,2.2382,2.2396,2.2564,2.2442,2.2451,2.2457,2.2461,2.2844,2.2848,0,0,0,0,0,0,2.1859,2.1889,2.2135,2.2146,2.1979,2.21,2.212,2.218,2.2278,2.2289,2.2211,2.2207,2.2367,2.2384,2.2401,2.2566,2.2453,2.2462,2.2468,2.284,2.2845,2.285,0,0,0,0,0,0,2.1852,2.1881,2.2129,2.2017,2.2049,2.211,2.2177,2.2185,2.2228,2.2295,2.2306,2.2243,2.2364,2.2387,2.251,2.2571,2.2467,2.2476,2.2835,2.2842,2.2847,2.2896,0,0,0,0,0,0,2.1842,2.1879,2.1932,2.2019,2.2055,2.2237,2.2181,2.2191,2.2246,2.2242,2.2329,2.2339,2.2363,2.2495,2.252,2.2583,2.2484,2.283,2.2838,2.2845,2.2889,2.2903,2.2915,0,0,0,0,0,2.183,2.1938,2.1935,2.1965,2.2123,2.224,2.2261,2.2287,2.2251,2.2304,2.2347,2.2337,2.2561,2.2508,2.2536,2.2603,2.2826,2.2836,2.2845,2.2883,2.29,2.2914,0,0,0,0,0,0,2.1856,2.195,2.1947,2.2087,2.2156,2.2238,2.2306,2.2305,2.2384,2.2377,2.2405,2.2425,2.2548,2.2588,2.2528,2.2739,2.2689,2.2704,2.2708,2.2725,2.2737,2.2725,2.2492,0,0,0,0,0,2.1878,2.1967,2.2044,2.2159,2.2194,2.2245,2.2297,2.2311,2.2383,2.2412,2.2464,2.2532,2.2618,2.2674,2.2756,2.2895,2.2912,2.2955,2.2967,2.2978,2.299,2.3065,2.3084,2.288,2.288,2.288,0,0,2.1924,2.1986,2.2041,2.2166,2.2221,2.2311,2.2269,2.2366,2.2432,2.2426,2.2545,2.2586,2.2664,2.2795,2.2856,2.2832,2.305,2.2989,2.2997,2.3004,2.3076,2.3095,2.3113,2.2886,2.2885,2.2884,0,0,2.2053,2.2111,2.2213,2.2269,2.2354,2.2386,2.2411,2.2494,2.2521,2.2642,2.2639,2.2717,2.2864,2.292,2.2967,2.3117,2.311,2.3143,2.321,2.3282,2.3298,2.3313,2.3365,2.3384,2.3156,2.3156,2.3156,0,2.2099,2.2236,2.2265,2.2363,2.2417,2.2417,2.252,2.2572,2.2679,2.2715,2.2688,2.2873,2.2926,2.3069,2.3106,2.3145,2.3172,2.3133,2.3294,2.3309,2.3323,2.3373,2.3392,2.3159,2.3159,2.3159,2.3158,0,2.2288,2.2383,2.2455,2.2559,2.2622,2.2721,2.2763,2.2823,2.2832,2.2867,2.2989,2.3052,2.3147,2.3182,2.3192,2.3327,2.331,2.3288,2.3238,2.3345,2.3392,2.3412,2.3164,2.3163,2.3162,2.3161,0,0,2.2437,2.2557,2.2583,2.263,2.2723,2.2796,2.2894,2.2989,2.3039,2.3112,2.3194,2.3319,2.3299,2.3353,2.3369,2.3433,2.3546,2.3403,2.3405,2.3426,2.3697,2.3711,2.3733,2.3541,2.3545,2.3548,2.369,0,2.2575,2.2753,2.2781,2.2936,2.3022,2.3024,2.3109,2.3175,2.321,2.3287,2.3325,2.3412,2.3381,2.3413,2.3477,2.3518,2.36,2.3509,2.3616,2.362,2.3596,2.3758,2.3775,2.3905,2.3708,2.3712,2.3714,0,2.276,2.284,2.3004,2.3084,2.3122,2.3199,2.3287,2.3362,2.3435,2.3456,2.3516,2.3524,2.3624,2.3571,2.3708,2.3645,2.3691,2.3718,2.3723,2.3734,2.3673,2.3772,2.3948,2.3967,2.3744,2.3741,2.3739,0,2.2851,2.2999,2.3116,2.3157,2.3254,2.3308,2.335,2.342,2.3475,2.3552,2.3587,2.3674,2.3721,2.3787,2.3817,2.3776,2.3952,2.3901,2.3971,2.397,2.4007,2.4004,2.4191,2.4038,2.4038,2.4037,2.4037,0,2.3001,2.3101,2.3158,2.323,2.3341,2.3372,2.3481,2.3522,2.3584,2.3662,2.3668,2.3741,2.3777,2.3855,2.3879,2.3988,2.4009,2.4028,2.4033,2.4027,2.4024,2.4056,2.4048,2.4043,2.4041,2.404,2.404,0,2.3121,2.3164,2.3292,2.3374,2.3397,2.3475,2.3544,2.3613,2.3648,2.3747,2.3772,2.3825,2.3917,2.3954,2.4066,2.4082,2.4208,2.4206,2.4183,2.4185,2.4251,2.4244,2.4465,2.4495,2.4323,2.4324,2.4326,0,2.3214,2.3291,2.3382,2.3436,2.3481,2.3568,2.3624,2.3657,2.3715,2.3804,2.3861,2.3953,2.4029,2.4175,2.4223,2.4308,2.4308,2.4379,2.432,2.4312,2.4307,2.4302,2.4309,2.439,2.4391,2.4393,2.4394,0,2.3374,2.3391,2.3473,2.3563,2.363,2.3702,2.3771,2.3815,2.3858,2.3922,2.4017,2.4076,2.4191,2.4281,2.4369,2.4411,2.4409,2.4412,2.4433,2.4427,2.4411,2.4419,2.4212,2.4407,2.4406,2.4405,2.4404,2.4403,2.3482,2.3551,2.3625,2.3716,2.3773,2.3838,2.3906,2.395,2.403,2.4128,2.4142,2.4243,2.4313,2.4431,2.4476,2.4554,2.4536,2.4565,2.4573,2.4579,2.4584,2.4399,2.457,2.457,2.457,2.457,2.4569,0,2.3641,2.369,2.3773,2.3871,2.3942,2.3937,2.4013,2.4073,2.4162,2.4229,2.4303,2.4411,2.4499,2.4554,2.4642,2.4694,2.4696,2.4716,2.4712,2.4721,2.4596,2.4569,2.4714,2.4713,2.4713,2.4713,2.4713,2.4713,2.3732,2.3847,2.3874,2.4016,2.4063,2.4164,2.4208,2.4267,2.432,2.4442,2.4516,2.4551,2.4613,2.4705,2.4785,2.4799,2.483,2.4852,2.4864,2.4745,2.473,2.4716,2.4691,2.4859,2.4859,2.4983,2.4985,2.4985]}]]